Regional Weather Roundup
Issued by NWS

Home | Current Version | Previous Version | Graphics & Text | Print | Product List | Glossary On
Versions: 1 2 3 4 5 6 7 8 9 10 11 12 13 14 15 16 17 18 19 20 21 22 23 24 25 26 27 28 29 30 31 32 33 34 35 36 37 38 39 40 41 42 43 44 45 46 47 48 49 50
000
ASUS43 KIND 031859
RWRIN

WEATHER ROUNDUP FOR INDIANA
NATIONAL WEATHER SERVICE INDIANAPOLIS IN
300 PM EDT FRI JUL 03 2015

NOTE: "FAIR" INDICATES FEW OR NO CLOUDS BELOW 12,000 FEET WITH NO
SIGNIFICANT WEATHER AND/OR OBSTRUCTIONS TO VISIBILITY.

* - STATION DOES NOT REPORT WEATHER SUCH AS PRECIPITATION OR FOG.

+ - STATION NOT QUALITY CONTROLLED BY THE NATIONAL WEATHER SERVICE.
    USE DATA WITH CAUTION...ESPECIALLY DEWPOINT AND RELATIVE
    HUMIDITY OBSERVATIONS.

INZ001>003-010>013-019-020-032000-
NORTHWEST INDIANA

CITY           SKY/WX    TMP DP  RH WIND       PRES   REMARKS
GARY /AIRPORT/ PTSUNNY   73  59  60 N7        29.97F
KNOX *+        CLOUDY    75  55  50 N6        29.94F
MONTICELLO +   CLOUDY    74  63  69 E3        29.93F
RENSSELAER +   CLOUDY    75  61  60 CALM      29.94F

$$

LMZ046-743>745-032000-
SOUTHERN LAKE MICHIGAN

STATION/POSITION TIME  TEMP    WIND        PRES    WAVE
                       AIR SEA DIR/SP/G            HT
                 (UTC) (F)     (DEG/KT/KT) (MB)    (FT)
BURNS HARBOR     1800   64      20/ 10/ 11 1015.6S
MICHIGAN CITY    1800   65     340/  8/  9   N/A
5NW MICH CITY    1800   64 64  360/ 10/ 12   N/A     1

$$

INZ004-005-014>016-021>024-032000-
NORTH CENTRAL INDIANA

CITY           SKY/WX    TMP DP  RH WIND       PRES   REMARKS
GOSHEN         PTSUNNY   73  56  54 NE7       29.96F
SOUTH BEND     PTSUNNY   74  54  49 VRB3      29.96F
WARSAW +         N/A     72  55  56 E6        29.95F

$$

INZ006>009-017-018-025>027-032000-
NORTHEAST INDIANA

CITY           SKY/WX    TMP DP  RH WIND       PRES   REMARKS
ANGOLA *+        N/A     73  55  53 CALM      29.97S
FORT WAYNE     CLOUDY    73  59  61 NE7       29.95F

$$

INZ028-029-035-036-043>045-051>053-032000-
WEST CENTRAL INDIANA

CITY           SKY/WX    TMP DP  RH WIND       PRES   REMARKS
CRAWFORDSVL +  CLOUDY    72  58  62 E8        29.92S
GREENCASTLE +  CLOUDY    73  61  64 E7        29.91S
LAFAYETTE      CLOUDY    73  63  70 NE8       29.92F
TERRE HAUTE    CLOUDY    77  66  68 N7        29.88F

$$

INZ030>032-037>040-046>048-054>057-064-065-032000-
CENTRAL INDIANA

CITY           SKY/WX    TMP DP  RH WIND       PRES   REMARKS
ANDERSON       PTSUNNY   77  55  47 E6        29.92
COLUMBUS       CLOUDY    68  64  88 N9        29.89F
FRANKFORT +    CLOUDY    73  64  73 N10       29.94F
GREENWOOD *+   CLOUDY    70  64  83 SE5       29.91F
INDIANAPOLIS   CLOUDY    73  62  68 NE12      29.88F
-EAGLE CREEK   CLOUDY    73  62  68 E6        29.90F
KOKOMO *+      CLOUDY    72  61  68 NE9       29.93F
MT COMFORT *+  PTSUNNY   75  59  57 NE7       29.91F
SHELBYVILLE    LGT RAIN  69  65  86 CALM      29.89F FOG

$$

INZ033-034-041-042-049-050-058-059-032000-
EAST CENTRAL INDIANA

CITY           SKY/WX    TMP DP  RH WIND       PRES   REMARKS
MUNCIE         MOSUNNY   75  61  61 NE9       29.92F

$$

INZ060-061-067>069-081>083-085>088-032000-
SOUTHWEST INDIANA

CITY           SKY/WX    TMP DP  RH WIND       PRES   REMARKS
EVANSVILLE     LGT RAIN  79  72  79 N5        29.87S
HUNTINGBURG *+ PTSUNNY   81  72  74 NW7       29.86S

$$

INZ062-063-066-070>080-084-089>092-032000-
SOUTH CENTRAL AND SOUTHEAST INDIANA

CITY           SKY/WX    TMP DP  RH WIND       PRES   REMARKS
BLOOMINGTON    CLOUDY    72  65  78 NE7       29.90S
MADISON *+     CLOUDY    73  66  78 CALM      29.88F
SEYMOUR +      CLOUDY    75  66  73 N6        29.88S

$$




USA.gov is the U.S. government's official web portal to all federal, state and local government web resources and services.